[[{"header":{"parameterUnit":"m.s-1","parameterCategory":1,"la1":30.2992,"la2":30.254,"lo1":-89.0895,"lo2":-89.0443,"dy":0.0025,"dx":0.0025,"nx":19,"ny":19,"refTime":"2026-04-03T21:00:00:Z","depth":0,"parameterNumber":2,"parameterNumberName":"U-component_of_WINDS"},"data":[0,0,0,-2.775,-2.7748,-2.7629,-2.7629,-2.7497,-2.7496,0,0,0,0,0,0,0,0,0,0,0,-2.78,-2.7799,-2.775,-2.7747,-2.7629,-2.7629,-2.7498,-2.7496,0,0,0,0,0,0,0,0,0,0,0,-2.78,-2.7799,-2.7799,-2.7747,-2.7629,-2.7629,-2.7498,-2.7579,0,0,0,0,0,0,0,0,0,0,-2.769,-2.7751,-2.7799,-2.7799,-2.7747,-2.763,-2.7629,-2.7583,-2.7574,-2.7561,0,-2.7555,0,-2.7524,-2.7489,-2.7489,0,0,0,-2.7736,-2.7759,-2.7714,-2.7799,-2.7746,-2.763,-2.7679,-2.7578,-2.7568,-2.7549,-2.7552,-2.7547,-2.7522,-2.7489,-2.7488,-2.7455,-2.7455,0,0,-2.7742,-2.7785,-2.7721,-2.7708,-2.7731,-2.7683,-2.7676,-2.7572,-2.7577,-2.7552,-2.7543,-2.752,-2.7488,-2.7487,-2.7454,-2.7455,0,0,0,-2.7769,-2.7791,-2.7748,-2.7715,-2.7692,-2.768,-2.7671,-2.7581,-2.7564,-2.7542,-2.7518,-2.7487,-2.7486,-2.7454,-2.7455,-2.7517,0,0,0,-2.7772,-2.7806,-2.7751,-2.7776,-2.7694,-2.7636,-2.7684,-2.7571,-2.7558,-2.7519,-2.7487,-2.7485,-2.7453,-2.7454,-2.7514,-2.7538,0,0,0,-2.7802,-2.7809,-2.7798,-2.7779,-2.773,-2.7636,-2.7613,-2.7567,-2.7544,-2.7489,-2.7485,-2.7453,-2.7454,-2.7512,-2.7534,-2.7541,0,0,0,-2.7846,-2.7853,-2.7799,-2.7798,-2.7732,-2.7677,-2.7613,-2.7569,-2.753,-2.7487,-2.7454,-2.7455,-2.7511,-2.7531,-2.7539,-2.7554,-2.7566,0,0,-2.7879,-2.7859,-2.7855,-2.7803,-2.777,-2.7692,-2.7666,-2.7587,-2.7541,-2.7486,-2.7484,-2.7515,-2.7533,-2.7541,-2.7616,-2.7625,0,0,0,-2.788,-2.7877,-2.7859,-2.7825,-2.7767,-2.7718,-2.764,-2.761,-2.7562,-2.7523,-2.7519,-2.7529,-2.7531,-2.7536,-2.7544,-2.7543,-2.746,-2.7459,-2.7459,-2.7987,-2.793,-2.792,-2.7849,-2.7816,-2.7736,-2.7703,-2.765,-2.76,-2.7601,-2.7583,-2.7636,-2.7644,-2.7649,-2.7649,-2.7588,-2.7588,-2.7588,-2.7589,-2.8029,-2.8016,-2.7953,-2.792,-2.7859,-2.7829,-2.7752,-2.7719,-2.7681,-2.7644,-2.7643,-2.7606,-2.7661,-2.7657,-2.7593,-2.7592,-2.7591,-2.7591,-2.7591,-2.8092,-2.8075,-2.8042,-2.7987,-2.7951,-2.7878,-2.7846,-2.7791,-2.7739,-2.7739,-2.7714,-2.7712,-2.7703,-2.7731,-2.7732,-2.7732,-2.7732,-2.7732,-2.7732,-2.8169,-2.8129,-2.811,-2.8051,-2.8022,-2.7976,-2.7897,-2.7866,-2.7817,-2.778,-2.7779,-2.7729,-2.7679,-2.7666,-2.7735,-2.7734,-2.7734,-2.7734,-2.7733,-2.8229,-2.8207,-2.8178,-2.8149,-2.8075,-2.8042,-2.7974,-2.7916,-2.7883,-2.7868,-2.7819,-2.7791,-2.7765,-2.7758,-2.7747,-2.7832,-2.7832,-2.7832,-2.7832,-2.8281,-2.8264,-2.8221,-2.8179,-2.8131,-2.8067,-2.8033,-2.7972,-2.7904,-2.7879,-2.786,-2.7841,-2.7837,-2.7813,-2.7805,-2.7794,-2.7889,-2.7889,-2.7889,-2.8314,-2.829,-2.8272,-2.8209,-2.8147,-2.8095,-2.806,-2.8013,-2.7931,-2.7891,-2.7859,-2.7856,-2.7826,-2.7819,-2.7775,-2.7764,-2.7742,0,0]},{"header":{"parameterUnit":"m.s-1","parameterCategory":1,"la1":30.2992,"la2":30.254,"lo1":-89.0895,"lo2":-89.0443,"dy":0.0025,"dx":0.0025,"nx":19,"ny":19,"refTime":"2026-04-03T21:00:00:Z","depth":0,"parameterNumber":3,"parameterNumberName":"V-component_of_WINDS"},"data":[0,0,0,3.8055,3.8057,3.8193,3.8193,3.8361,3.8362,0,0,0,0,0,0,0,0,0,0,0,3.8014,3.8015,3.8054,3.8058,3.8193,3.8193,3.8361,3.8362,0,0,0,0,0,0,0,0,0,0,0,3.8013,3.8015,3.8016,3.8058,3.8193,3.8193,3.836,3.8259,0,0,0,0,0,0,0,0,0,0,3.8129,3.8091,3.8014,3.8016,3.8059,3.8192,3.8193,3.8255,3.8266,3.8298,0,3.8329,0,3.8349,3.8374,3.8374,0,0,0,3.8057,3.8082,3.812,3.8016,3.806,3.8192,3.8132,3.8261,3.8273,3.8313,3.8332,3.8338,3.8352,3.8375,3.8375,3.8573,3.8574,0,0,3.805,3.8037,3.8111,3.8128,3.8109,3.8127,3.8136,3.8269,3.8287,3.8332,3.8342,3.8354,3.8376,3.8377,3.8572,3.8573,0,0,0,3.8029,3.8032,3.8066,3.8121,3.8146,3.8131,3.8141,3.8281,3.8294,3.8344,3.8356,3.8377,3.8379,3.8571,3.8572,3.8609,0,0,0,3.8024,3.8019,3.8063,3.8056,3.8143,3.8216,3.815,3.8284,3.83,3.8356,3.8377,3.838,3.857,3.8572,3.8606,3.8628,0,0,0,3.8005,3.8017,3.8037,3.8055,3.8113,3.8214,3.8234,3.8288,3.8308,3.8374,3.8381,3.8569,3.8571,3.8603,3.8623,3.8678,0,0,0,3.798,3.8064,3.8037,3.8136,3.8112,3.8236,3.8233,3.8325,3.8387,3.8378,3.857,3.8572,3.8602,3.862,3.8675,3.8723,3.8742,0,0,3.8079,3.8076,3.8135,3.8115,3.8241,3.8216,3.8347,3.8413,3.8429,3.8523,3.8528,3.8607,3.8623,3.8678,3.8848,3.8863,0,0,0,3.8162,3.8205,3.8241,3.8301,3.8357,3.8406,3.8454,3.8479,3.8561,3.8476,3.8641,3.8651,3.8683,3.8707,3.872,3.8749,3.8582,3.8582,3.8582,3.8283,3.8303,3.8403,3.844,3.8497,3.8549,3.8597,3.8639,3.8638,3.8677,3.8705,3.8807,3.8834,3.8844,3.8874,3.8731,3.8731,3.8732,3.8732,3.8431,3.8496,3.8497,3.8595,3.8615,3.8696,3.8748,3.8746,3.8823,3.8787,3.8816,3.8776,3.886,3.8887,3.8735,3.8734,3.8734,3.8733,3.8733,3.8514,3.8548,3.858,3.8671,3.8739,3.8771,3.8847,3.8861,3.8874,3.8903,3.8935,3.8935,3.8937,3.8917,3.8918,3.8918,3.8918,3.8919,3.8919,3.8588,3.8622,3.8687,3.8755,3.8797,3.8853,3.8907,3.8947,3.8995,3.8999,3.9,3.8996,3.8864,3.8832,3.8924,3.8923,3.8923,3.8922,3.8922,3.8733,3.8703,3.8803,3.8845,3.8928,3.8995,3.9012,3.9094,3.9129,3.9166,3.9157,3.9057,3.9053,3.9043,3.9017,3.9152,3.9152,3.9152,3.9152,3.8804,3.8805,3.8911,3.8979,3.9046,3.9072,3.9183,3.9225,3.9263,3.9286,3.9268,3.9234,3.9223,3.9226,3.9212,3.9187,3.9363,3.9363,3.9363,3.8896,3.8904,3.8997,3.9038,3.9104,3.9159,3.9265,3.934,3.9376,3.9372,3.9305,3.9296,3.924,3.9221,3.9215,3.9194,3.9149,0,0]}]]